Terminal Aerodrome Forecast
Issued by NWS Upton, NY

Home | Current Version | Previous Version | Text Only | Print | Product List | Glossary On
Versions: 1 2 3 4 5 6 7 8 9 10 11 12 13 14 15 16 17 18 19 20 21 22 23 24 25 26 27 28 29 30 31 32 33 34 35 36 37 38
000
FTUS41 KOKX 020858 AAA
TAFLGA
TAF AMD
KLGA 020858Z 0209/0306 21005KT P6SM SCT120 SCT250
     FM021400 21010KT P6SM SCT250
     FM021600 20015G22KT P6SM SCT250
     FM021800 19019G27KT P6SM FEW050 SCT250
     FM030000 21019G26KT P6SM BKN150
     FM030300 22019G26KT P6SM SCT060 BKN100=

USA.gov is the U.S. government's official web portal to all federal, state and local government web resources and services.